Content
SEND FEEDBACK

Daily
Averages
Monthly
Summary
Mexico

COZUMEL, QUINTANA ROO


Home > North America > Mexico > Quintana Roo
Elevation: 15 feet     Latitude: 20 31N     Longitude: 086 56W

WEATHER
 
SELECT A DAY
Number of Records: 127,289;   Date Range: 1/1/95 - 10/23/14
 
SHARE

PRINT THIS DATA

[ ← Previous Day ]
WEATHER ALMANAC - MARCH 6, 2014
[ Next Day → ]
[ °C ]   °F
Weather ElementAverageHighLow
Temperature72.8 °F84.2 °F (1:40 pm)66.2 °F (2:51 pm)
Dewpoint70.1 °F73.4 °F (7:40 am)66.2 °F (2:51 pm)
Humidity91.9 %100 % (1:46 am)70 % (1:40 pm)
Barometer29.93 in30.01 in (8:47 pm)29.85 in (1:40 pm)
Wind Speed7.7 mph23 mph (2:33 pm)
Wind Gust19.6 mph (11:40 am)
Weather ElementAverage
Visibility7.2 mi
Wind DirectionSSW (186 °)

Weather ElementTotal
Precipitation---
Cooling Degree Days10.2 (Base 65)
Growing Degree Days25.2 (Base 50)
Averaged from 25 records on March 6, 2014
WEATHER CONDITIONS BREAKOUT
WIND DIRECTION BREAKOUT
WEATHER BY HOUR - MARCH 6, 2014
[ °C ]   °F
Local TimeTemperatureDewpointHumidityBarometerVisibilityWind DirectionWind SpeedGust SpeedPrecipitationEventsConditions
1:46 AM68.0 °F68.0 °F100 %29.91 in7.0 miCalmClear
3:11 AM68.0 °F68.0 °F100 %29.93 in7.0 miCalmClear
3:45 AM68.0 °F68.0 °F100 %29.89 in7.0 miSSE (150°)3.5 mphClear
4:42 AM71.6 °F69.8 °F94 %29.90 in7.0 miSSE (160°)3.5 mphClear
5:43 AM71.6 °F71.6 °F100 %29.91 in7.0 miSSE (150°)3.5 mphPartly Cloudy
6:41 AM71.6 °F71.6 °F100 %29.92 in8.0 miSSE (160°)4.6 mphPartly Cloudy
7:40 AM77.0 °F73.4 °F89 %29.93 in8.0 miSSE (160°)15.0 mphScattered Clouds
8:41 AM77.0 °F73.4 °F89 %29.97 in8.0 miSouth (170°)11.5 mphScattered Clouds
9:40 AM78.8 °F73.4 °F83 %29.95 in8.0 miSouth (190°)6.9 mphMostly Cloudy
10:41 AM80.6 °F73.4 °F79 %29.95 in8.0 miSouth (190°)6.9 mphMostly Cloudy
11:40 AM82.4 °F73.4 °F74 %29.92 in8.0 miSSW (210°)8.1 mph19.6 mphMostly Cloudy
12:41 PM82.4 °F73.4 °F74 %29.89 in8.0 miSouth (180°)8.1 mphMostly Cloudy
1:40 PM84.2 °F73.4 °F70 %29.85 in8.0 miSSW (200°)16.1 mphMostly Cloudy
2:33 PM73.4 °F69.8 °F88 %29.91 in6.0 miNW (310°)23.0 mphOvercast
2:51 PM66.2 °F66.2 °F100 %29.92 in2.0 miWNW (300°)11.5 mphRainRain
3:10 PM66.2 °F66.2 °F100 %29.91 in8.0 miWNW (290°)4.6 mphOvercast
3:49 PM68.0 °F68.0 °F100 %29.92 in8.0 miCalmOvercast
4:42 PM68.0 °F68.0 °F100 %29.91 in7.0 miNorth (10°)4.6 mphOvercast
5:47 PM71.6 °F71.6 °F100 %29.91 in7.0 miNorth (10°)6.9 mphOvercast
6:51 PM71.6 °F71.6 °F100 %29.96 in7.0 miNorth (360°)6.9 mphMostly Cloudy
7:46 PM71.6 °F69.8 °F94 %29.97 in7.0 miNorth (360°)5.8 mphMostly Cloudy
8:47 PM71.6 °F69.8 °F94 %30.01 in7.0 miNorth (10°)11.5 mphMostly Cloudy
9:40 PM69.8 °F68.0 °F94 %30.00 in7.0 miNorth (360°)9.2 mphMostly Cloudy
10:45 PM69.8 °F66.2 °F88 %29.99 in7.0 miNorth (360°)9.2 mphMostly Cloudy
11:42 PM69.8 °F66.2 °F88 %29.95 in7.0 miNorth (360°)10.4 mphScattered Clouds
Hourly data recorded from MMCZ, located miles away from Cozumel, Quintana Roo







STORIES FROM OUR PARTNERS